Simultaneous Nadir Overpasses (SNOs) Predictions

Prediction of SNOs between GOES-16 and METOP-B Satellite Orbit:

Table of predicted SNOs for the next 14.0 days since TLE Epoch: 10/5/2024
Index Date Time (GOES-16) GOES-16 Lat,Lon METOP-B Lat,Lon Distance(km) Time Diff (sec)
1 10/06/2024 02:31:36 0.07, -75.20 -0.70, -78.61 388.81 80
2 10/07/2024 02:13:35 0.07, -75.20 0.43, -73.62 180.95 80
3 10/08/2024 14:29:42 -0.07, -75.22 0.61, -78.17 337.07 80
4 10/09/2024 14:11:40 -0.06, -75.22 -0.54, -73.18 232.91 80
5 10/11/2024 02:27:56 0.06, -75.22 -0.54, -77.76 291.08 80
6 10/12/2024 02:09:53 0.05, -75.22 0.57, -72.76 279.32 80
7 10/13/2024 14:28:41 -0.05, -75.24 0.41, -77.33 237.46 80
8 10/14/2024 14:05:18 -0.05, -75.25 -0.71, -72.33 333.41 80
9 10/16/2024 02:24:13 0.05, -75.26 -0.31, -76.92 188.96 80
10 10/17/2024 02:06:10 0.05, -75.27 0.78, -71.91 382.39 80
11 10/18/2024 14:24:56 -0.05, -75.30 0.21, -76.47 132.99 80
